Location: Forst
(46.9333°N, 15.4333°E)
Time: 06:18:08
(UTC+00:00)

Cosmos 1666 Rocket - Pass Details

Date: 01 December 2020
Orbit: 604 x 632 km, 82.5° (Epoch: 18 January)

Event Time Altitude Azimuth Distance (km) Brightness Sun altitude
Rises 15:59:47 0° 352° (N) 2,910 6.8 -8.2°
Reaches altitude 10° 16:02:01 10° 354° (N) 2,003 6.0 -8.5°
Maximum altitude 16:06:28 74° 80° (E) 655 3.5 -9.2°
Drops below altitude 10° 16:10:54 10° 166° (SSE) 2,002 6.3 -9.9°
Sets 16:13:08 0° 168° (SSE) 2,907 7.1 -10.3°
